Total_Precipitation_Accumulation
0.06 0.06 0.15 0.11 0.07 0.10 0.13 0.12 0.12 0.10 0.08 0.07 0.07 0.05 0.04 0.03 0.03 0.04 0.04 0.05 0.06 0.09 0.11 0.14 0.16 0.18 0.19 0.18 0.18 0.16 0.16 0.15 0.21 0.29 0.34 0.33 0.35 0.47 0.66 0.71 0.76 0.55 0.46
0.02 0.04 0.10 0.09 0.07 0.10 0.12 0.12 0.13 0.13 0.11 0.08 0.07 0.06 0.05 0.05 0.04 0.05 0.06 0.07 0.06 0.08 0.08 0.10 0.12 0.13 0.14 0.12 0.12 0.12 0.15 0.22 0.30 0.41 0.40 0.35 0.37 0.48 0.58 0.59 0.76 0.50 0.40
0.04 0.04 0.07 0.09 0.09 0.10 0.12 0.12 0.13 0.14 0.13 0.10 0.09 0.08 0.09 0.07 0.06 0.06 0.07 0.07 0.07 0.07 0.06 0.07 0.09 0.09 0.10 0.10 0.09 0.11 0.16 0.27 0.42 0.53 0.63 0.47 0.30 0.47 0.54 0.56 0.54 0.44 0.39
0.07 0.04 0.04 0.07 0.10 0.10 0.11 0.13 0.13 0.13 0.13 0.11 0.14 0.13 0.11 0.07 0.07 0.06 0.06 0.07 0.07 0.07 0.06 0.06 0.07 0.06 0.06 0.07 0.10 0.14 0.21 0.32 0.45 0.65 0.87 0.51 0.28 0.35 0.44 0.45 0.41 0.39 0.34
0.08 0.05 0.06 0.08 0.09 0.10 0.12 0.13 0.14 0.14 0.13 0.13 0.17 0.18 0.15 0.10 0.10 0.10 0.08 0.07 0.07 0.07 0.06 0.05 0.05 0.05 0.05 0.06 0.10 0.17 0.24 0.33 0.48 0.61 0.57 0.53 0.53 0.37 0.35 0.40 0.39 0.38 0.30
0.10 0.07 0.09 0.10 0.10 0.10 0.11 0.13 0.17 0.19 0.17 0.16 0.17 0.17 0.16 0.13 0.15 0.14 0.09 0.08 0.08 0.08 0.07 0.06 0.06 0.06 0.05 0.07 0.11 0.18 0.25 0.37 0.47 0.43 0.37 0.37 0.43 0.39 0.35 0.48 0.52 0.47 0.37
0.14 0.08 0.10 0.13 0.12 0.11 0.10 0.11 0.14 0.17 0.18 0.21 0.20 0.16 0.14 0.11 0.11 0.11 0.09 0.08 0.08 0.08 0.08 0.07 0.07 0.08 0.09 0.11 0.14 0.19 0.29 0.42 0.41 0.35 0.33 0.42 0.46 0.36 0.44 0.66 0.79 0.70 0.56
0.21 0.15 0.16 0.18 0.16 0.14 0.13 0.13 0.13 0.13 0.14 0.15 0.16 0.14 0.11 0.10 0.12 0.14 0.12 0.09 0.09 0.09 0.09 0.09 0.09 0.10 0.13 0.15 0.17 0.20 0.27 0.30 0.24 0.26 0.30 0.39 0.34 0.32 0.56 0.77 0.92 0.90 0.81
0.37 0.25 0.23 0.21 0.19 0.19 0.21 0.18 0.17 0.17 0.17 0.18 0.18 0.16 0.15 0.14 0.15 0.16 0.19 0.16 0.15 0.16 0.15 0.14 0.11 0.12 0.15 0.16 0.18 0.22 0.26 0.30 0.33 0.35 0.34 0.40 0.34 0.50 0.87 0.99 0.98 1.00 0.96
0.76 0.50 0.34 0.27 0.26 0.22 0.20 0.22 0.22 0.23 0.22 0.20 0.19 0.18 0.19 0.19 0.20 0.22 0.23 0.23 0.26 0.29 0.29 0.23 0.21 0.20 0.20 0.20 0.22 0.26 0.29 0.32 0.40 0.41 0.43 0.37 0.41 0.68 1.03 1.16 1.18 1.13 1.05
0.92 0.70 0.55 0.40 0.34 0.30 0.25 0.24 0.29 0.31 0.30 0.28 0.30 0.28 0.30 0.34 0.42 0.47 0.45 0.51 0.50 0.51 0.52 0.47 0.44 0.44 0.40 0.31 0.36 0.43 0.37 0.35 0.49 0.47 0.43 0.36 0.51 0.79 1.09 1.22 1.24 1.23 1.13
1.07 0.90 0.74 0.59 0.47 0.41 0.38 0.46 0.54 0.48 0.50 0.47 0.60 0.64 0.67 0.80 0.78 0.58 0.65 0.89 0.99 1.06 1.02 0.97 0.96 0.81 0.69 0.61 0.94 1.12 0.50 0.47 0.59 0.55 0.52 0.56 0.78 1.06 1.34 1.29 1.22 1.23 1.13
1.45 1.22 0.98 0.84 0.71 0.62 0.70 0.62 0.67 0.76 0.84 0.82 0.86 0.92 0.99 1.00 0.86 0.74 0.86 1.11 1.35 1.43 1.32 1.54 1.57 1.18 1.21 1.36 1.33 1.22 0.79 0.90 0.91 0.87 0.78 0.97 1.18 1.47 1.86 1.68 1.38 1.24 1.16
1.64 1.51 1.45 1.21 1.05 1.11 1.08 0.81 0.76 0.81 0.88 0.96 1.15 1.19 1.25 1.37 1.29 1.23 1.28 1.35 1.52 1.68 1.87 1.91 1.99 1.83 1.78 1.71 1.66 1.47 1.27 1.29 1.27 1.47 1.46 1.37 1.42 1.65 2.12 2.09 1.68 1.41 1.24
1.82 1.74 1.71 1.64 1.48 1.52 1.31 1.16 1.03 1.09 1.12 1.15 1.22 1.36 1.38 1.59 1.70 1.68 1.61 1.59 1.58 1.71 1.85 1.95 1.99 2.30 2.41 2.09 1.73 1.57 1.53 1.60 1.49 1.59 1.58 1.54 1.45 1.56 1.90 2.13 2.00 1.79 1.51
2.21 2.17 1.97 1.90 1.87 1.83 1.75 1.73 1.64 1.45 1.44 1.42 1.38 1.38 1.47 1.64 1.82 1.91 1.82 1.77 1.67 1.68 1.82 1.97 2.14 2.54 2.53 2.36 1.90 1.71 1.65 1.59 1.47 1.44 1.55 1.77 1.61 1.48 1.57 1.83 2.03 2.03 1.90
2.63 2.58 2.52 2.46 2.52 2.44 2.28 2.22 2.04 1.85 1.74 1.68 1.69 1.70 1.65 1.69 1.80 1.80 1.65 1.59 1.64 1.78 1.90 1.93 2.12 2.40 2.10 2.06 1.83 1.76 1.59 1.39 1.25 1.24 1.42 1.60 1.51 1.47 1.56 1.67 1.83 1.92 2.01
2.80 2.87 2.97 3.02 2.94 2.73 2.66 2.62 2.44 2.23 2.06 1.91 1.84 1.87 1.76 1.68 1.69 1.81 1.62 1.52 1.84 1.95 2.01 2.15 2.26 2.25 2.13 2.09 1.89 1.65 1.49 1.39 1.14 1.06 1.08 1.16 1.28 1.17 1.41 1.61 1.65 1.69 1.88
3.20 3.37 3.49 3.44 3.27 3.03 2.94 2.85 2.72 2.53 2.27 2.03 1.88 1.83 1.69 1.67 1.76 1.97 1.88 1.94 2.16 2.20 2.17 2.09 2.31 2.29 2.15 2.10 1.91 1.62 1.32 1.19 1.04 0.92 0.85 0.81 0.90 0.98 1.06 1.23 1.37 1.45 1.79
3.61 3.89 3.71 3.54 3.63 3.46 3.28 3.06 2.75 2.35 2.07 1.99 1.92 1.76 1.73 1.77 1.88 2.13 1.97 1.96 2.11 2.19 2.14 2.09 2.03 2.08 1.89 1.89 1.79 1.49 1.16 0.89 0.84 0.74 0.63 0.62 0.66 0.66 0.78 0.96 1.18 1.09 1.39
3.53 3.86 4.03 3.96 3.78 3.50 3.12 2.80 2.53 2.33 2.20 2.00 1.86 1.76 1.72 1.69 1.76 2.02 1.89 1.96 1.99 1.95 1.94 1.99 1.96 1.81 1.52 1.73 1.77 1.35 0.94 0.75 0.71 0.53 0.51 0.52 0.50 0.54 0.68 0.88 1.06 1.06 1.03
3.17 3.59 3.83 3.99 3.83 3.39 2.93 2.64 2.49 2.43 2.12 1.84 1.80 1.76 1.73 1.82 1.80 1.85 1.87 1.85 1.87 1.87 1.77 1.75 1.81 1.62 1.36 1.52 1.60 1.51 0.98 0.75 0.62 0.48 0.54 0.60 0.62 0.69 0.72 0.79 0.93 1.05 1.06
2.74 2.99 3.08 3.19 3.11 2.80 2.62 2.52 2.44 2.40 2.09 1.95 1.99 1.99 1.95 1.98 1.93 1.91 1.84 1.72 1.58 1.52 1.45 1.49 1.57 1.53 1.37 1.35 1.54 1.70 1.32 0.94 0.83 0.65 0.64 0.65 0.74 0.82 0.80 0.83 0.88 1.01 1.11
2.37 2.60 2.73 2.70 2.57 2.32 2.23 2.24 2.21 2.10 2.03 2.16 2.37 2.26 2.03 1.85 1.71 1.54 1.40 1.38 1.33 1.30 1.21 1.14 1.25 1.29 1.20 1.15 1.27 1.41 1.48 1.43 1.31 0.85 0.62 0.59 0.70 0.80 0.87 0.82 0.76 0.86 1.02
1.93 2.12 2.27 2.34 2.33 2.16 2.06 2.02 2.06 1.99 1.96 1.94 1.90 1.83 1.69 1.52 1.31 1.12 1.03 1.03 1.03 1.02 0.96 0.92 0.94 0.95 0.97 0.98 1.11 1.27 1.36 1.41 1.40 1.26 0.89 0.83 0.84 0.77 0.81 0.81 0.83 0.84 0.88
1.48 1.52 1.56 1.67 1.81 1.80 1.74 1.73 1.72 1.64 1.55 1.45 1.30 1.24 1.16 1.05 0.88 0.75 0.70 0.75 0.81 0.87 0.85 0.82 0.82 0.81 0.87 0.98 1.01 1.11 1.24 1.23 1.24 1.31 1.10 0.98 0.93 0.82 0.82 0.86 0.86 0.93 0.92